Back to catalog

STARLINK-37099

AliveCommunicationsSSO
NORAD 68301·PAYLOAD·🇺🇸 United States

Launched Mar 20, 2026 from Vandenberg Space Force Base

Loading…

Next Passes (next 24 hours)

TLE

FreshSource: CelesTrak SupGP

Epoch: Sep 14, 2026, 20:58 UTC

1 68301C 26057H   26257.87409722  .00030022  00000+0  93144-3 0  2576
2 68301  97.2857  23.3150 0000963  90.4251  98.2703 15.33441626    16

Track STARLINK-37099 in real time with AllMySat

Download on the App Store